SCP
0 0 0 0 0 0 0 0 0 0 0 0 0 0 0 0 0 0 0 0 0 0 0 0 0 1 1 1 1 1 1 1 1 1 1 0 0 0 1 1 1 1 1
0 0 0 0 0 0 0 0 0 0 0 0 0 0 0 0 0 0 0 0 0 0 0 0 0 0 1 1 1 1 1 1 1 1 1 0 0 0 1 1 1 1 1
0 0 0 0 0 0 0 0 0 0 0 0 0 0 0 0 0 0 0 0 0 0 0 0 0 0 1 1 1 1 1 1 1 1 1 0 0 1 1 1 1 1 1
0 0 0 0 0 0 0 0 0 0 0 0 0 0 0 0 0 0 0 0 0 0 0 0 0 0 0 0 0 0 1 1 1 1 0 0 0 1 1 1 1 1 1
0 0 0 0 0 0 0 0 0 0 0 0 0 0 0 0 0 0 0 0 0 0 0 0 0 0 0 0 0 0 0 0 0 0 0 0 0 0 1 1 1 1 0
0 0 0 0 0 0 0 0 0 0 0 0 0 0 0 0 0 0 0 0 0 0 0 0 0 0 0 0 0 0 0 0 0 0 1 1 1 1 1 1 1 0 0
0 0 0 0 0 0 0 0 0 0 0 0 0 0 0 0 0 0 0 0 0 0 0 0 0 0 0 0 0 0 0 1 0 0 1 1 1 1 1 1 1 1 0
0 0 0 0 0 0 0 0 0 0 0 0 0 0 0 0 0 0 0 0 0 0 0 0 0 0 0 0 0 0 0 0 0 0 1 1 1 1 1 1 1 1 1
0 0 0 0 0 0 0 0 0 0 0 0 0 0 0 0 0 0 0 0 0 0 0 0 0 0 0 0 0 0 0 0 0 0 0 0 1 1 1 1 1 1 1
0 0 0 0 0 0 0 0 0 0 0 0 0 0 0 0 0 0 0 0 0 0 0 0 0 0 0 0 0 0 0 0 0 0 0 0 0 0 1 1 1 1 1
0 0 0 0 0 0 0 0 0 0 0 0 0 0 0 0 0 0 0 0 0 0 0 0 0 0 0 0 0 0 0 0 0 0 0 0 0 0 0 1 1 1 1
0 0 0 0 0 0 0 0 0 0 0 0 0 0 0 0 0 0 0 0 0 0 0 0 0 0 0 0 0 0 0 0 0 0 0 0 0 0 0 1 1 1 1
0 0 0 0 0 0 0 0 0 0 0 0 0 0 0 0 0 0 0 0 0 0 0 0 0 0 0 0 0 0 0 0 0 0 0 0 0 0 0 0 1 1 1
0 0 0 0 0 0 0 0 0 0 0 0 0 0 0 0 0 0 0 0 0 0 0 0 0 0 0 0 0 0 0 0 0 0 0 0 0 0 0 0 0 1 1
0 0 0 0 0 0 0 0 0 0 0 0 0 0 0 0 0 0 0 0 0 0 0 0 0 0 0 0 0 0 0 0 0 0 0 0 0 0 0 0 0 0 0
0 0 0 0 0 0 0 0 0 0 0 0 0 0 0 0 0 0 0 0 0 0 0 0 0 0 0 0 0 0 0 0 0 0 0 0 0 0 0 0 0 0 0
0 0 0 0 0 0 0 0 0 0 0 0 0 0 0 0 0 0 0 0 0 0 0 0 0 0 0 0 0 0 0 0 0 0 0 0 0 0 0 0 0 0 0
0 0 0 0 0 0 0 0 0 0 0 0 0 0 0 0 0 0 0 0 0 0 0 0 0 0 0 0 0 0 0 0 0 0 0 0 0 0 0 0 0 0 0
0 0 0 0 0 0 0 0 0 0 0 0 0 0 0 0 0 0 0 0 0 0 0 0 0 0 0 0 0 0 0 0 0 0 0 0 0 0 0 0 0 0 0
0 0 0 0 0 0 0 0 0 0 0 0 0 0 0 0 0 0 0 0 0 0 0 0 0 0 0 0 0 0 0 0 0 0 0 0 0 0 0 0 0 0 0
0 0 0 0 0 0 0 0 0 0 0 0 0 0 0 0 0 0 0 0 0 0 0 0 0 0 0 0 0 0 0 0 0 0 0 0 0 0 0 0 0 0 0
0 0 0 0 0 0 0 0 0 0 0 0 0 0 0 0 0 0 0 0 0 0 0 0 0 0 0 0 0 0 0 0 0 0 0 0 0 0 0 0 0 0 0
0 0 0 0 0 0 0 0 0 0 0 0 0 0 0 0 0 0 0 0 0 0 0 0 0 0 0 0 0 0 0 0 0 0 0 0 0 0 0 0 0 0 0
0 0 0 0 0 0 0 0 0 0 0 0 0 0 0 0 0 0 0 0 0 0 0 0 0 0 0 0 0 0 0 0 0 0 0 0 0 0 0 0 0 0 0
0 0 0 0 0 0 0 0 0 0 0 0 0 0 0 0 0 0 0 0 0 0 0 0 0 0 0 0 0 0 0 0 0 0 0 0 0 0 0 0 0 0 0
0 0 0 0 0 0 0 0 0 0 0 0 0 0 0 0 0 0 0 0 0 0 0 0 0 0 0 0 0 0 0 0 0 0 0 0 0 0 0 0 0 0 0
Wind_Speed
1 1 1 1 1 1 1 1 2 2 2 2 2 3 3 3 3 2 3 7 7 7 7 7 7 7 6 6 6 5 5 6 5 6 5 5 5 6 6 6 6 6 6
1 1 1 1 1 0 1 1 1 1 1 1 2 2 2 2 2 3 3 5 8 9 8 8 8 7 7 6 6 6 6 6 6 6 6 6 6 6 7 7 7 7 7
1 1 1 0 0 0 1 1 2 1 1 2 2 2 2 2 2 3 3 3 4 8 9 9 8 8 7 7 7 7 8 8 8 7 8 7 7 7 7 8 8 8 8
1 1 1 0 0 1 1 1 1 1 1 1 1 2 2 1 2 2 3 3 3 4 6 10 9 8 8 8 8 8 8 8 8 8 9 8 8 8 9 9 9 9 9
1 1 1 0 1 1 1 1 1 1 1 1 1 2 2 2 1 3 3 3 3 3 3 7 10 10 9 9 8 8 8 8 9 9 10 9 8 9 9 10 10 10 10
1 1 1 1 1 1 1 1 1 1 1 1 1 2 2 2 2 2 2 2 3 4 4 4 5 7 10 10 9 9 9 9 9 10 10 10 10 10 10 11 11 11 11
1 1 1 1 1 1 1 1 1 1 2 2 2 2 2 2 2 1 1 2 3 3 3 4 3 3 4 9 10 10 9 9 9 10 10 11 11 11 11 12 12 12 13
0 1 1 1 1 1 1 1 1 1 1 1 2 1 2 2 2 1 1 1 2 2 3 3 3 3 3 3 7 10 11 10 10 10 11 11 12 12 12 12 13 13 14
0 0 1 1 1 2 1 2 1 2 2 1 1 2 1 2 2 2 1 1 2 1 2 2 2 3 3 3 4 8 10 11 11 11 12 12 12 12 13 13 14 14 14
0 0 1 1 1 1 1 2 2 1 3 2 1 0 1 2 1 2 2 1 1 2 2 2 2 2 2 2 4 8 10 10 11 11 12 12 13 13 13 14 14 15 15
0 0 1 1 1 1 1 1 1 2 2 2 2 1 1 0 1 2 2 2 2 2 2 2 1 2 2 2 3 6 10 10 11 11 12 12 13 14 14 15 15 15 16
0 0 0 1 1 2 2 2 2 2 2 2 2 2 2 2 2 2 3 2 3 2 2 1 1 2 2 2 4 8 10 11 11 12 12 13 13 14 14 15 15 16 16
1 1 1 1 1 2 2 2 2 2 2 2 2 2 1 1 1 2 2 2 2 2 2 2 2 2 2 2 3 8 9 11 12 13 13 14 14 14 14 15 16 16 16
2 1 1 1 1 1 2 2 2 2 2 2 2 2 1 1 1 2 2 1 2 2 2 3 2 2 2 2 5 8 6 11 13 13 14 14 14 14 14 15 15 16 16
1 1 1 1 1 1 2 2 2 2 2 2 2 2 2 1 1 1 1 2 2 3 4 3 2 2 2 2 6 4 5 10 13 14 14 15 14 14 14 15 15 16 16
1 1 1 1 2 2 2 2 2 2 2 2 2 2 2 1 1 1 1 1 2 3 4 3 3 2 3 4 7 5 6 12 12 14 14 14 14 14 15 15 15 16 16
1 1 2 2 2 2 2 2 2 3 3 2 2 2 2 2 1 1 1 1 2 2 5 5 2 2 3 5 6 5 5 5 7 12 14 14 14 15 15 15 16 16 16
1 2 1 2 2 2 2 3 4 3 3 3 3 2 2 1 2 1 1 2 2 3 4 6 4 3 4 5 5 6 6 6 6 11 14 14 14 14 15 16 16 16 16
1 1 1 1 2 2 2 3 3 3 3 3 3 3 3 2 2 1 2 2 2 2 3 4 5 3 3 4 5 6 6 5 6 9 12 13 14 15 15 16 16 15 16
2 1 1 1 2 2 2 2 2 2 2 2 2 2 2 2 2 2 2 2 2 3 3 4 5 5 4 4 4 5 6 5 6 6 8 9 12 14 15 16 16 16 16
2 1 1 1 1 1 2 2 2 2 2 1 1 1 1 2 2 2 2 2 2 3 3 4 5 5 5 4 5 4 6 6 6 4 5 6 6 6 8 12 14 16 17
1 1 1 1 1 1 1 3 2 2 1 1 1 1 1 2 3 4 5 5 4 4 4 4 5 6 7 6 5 5 6 6 6 3 4 7 5 7 7 6 13 17 17
1 1 1 1 2 2 1 2 2 2 1 2 2 2 2 2 3 3 5 6 6 7 7 5 6 7 8 7 6 6 6 7 8 5 5 8 5 7 6 8 16 17 17
2 2 2 2 2 2 2 2 2 2 1 2 2 2 3 3 3 4 3 4 4 5 6 5 7 8 7 6 5 6 7 8 8 5 4 7 5 7 7 7 13 16 17
2 2 2 2 2 2 2 2 2 1 2 2 2 2 3 3 5 5 3 4 5 6 6 8 10 10 11 11 8 4 5 5 7 5 3 4 5 7 6 6 8 13 15
2 2 2 2 2 2 3 3 3 1 2 2 2 2 3 5 6 6 3 4 6 6 5 5 7 9 8 9 9 6 5 6 6 6 3 3 4 4 6 5 5 5 8
Wind_Direction
100 77 72 67 60 54 60 57 49 42 40 43 61 68 63 56 45 36 21 27 28 26 30 32 30 26 21 16 19 19 15 11 6 1 356 354 353 349 342 335 331 326 327
132 121 101 83 49 51 68 77 69 54 36 41 54 66 68 63 49 38 28 22 30 29 28 26 22 19 16 16 12 13 10 2 357 354 350 344 341 340 336 331 327 321 317
144 146 138 110 349 68 94 87 71 70 56 50 43 46 67 65 58 44 38 32 24 24 23 21 16 13 13 11 12 14 14 9 4 0 355 347 343 339 331 329 325 318 314
118 141 146 181 183 126 116 114 93 78 55 44 39 24 33 61 66 60 52 44 35 25 19 23 18 16 18 14 11 12 9 2 358 357 353 351 345 341 336 334 328 320 313
82 127 153 189 143 119 98 112 101 100 82 50 44 41 30 31 39 62 57 49 44 36 25 19 17 13 14 12 7 6 3 358 357 356 352 348 345 343 339 335 329 323 317
75 93 81 32 96 116 101 99 104 81 98 84 61 44 35 35 37 56 53 52 45 36 30 19 9 4 11 10 6 2 360 357 354 352 348 346 341 338 335 333 331 329 325
106 117 121 78 74 111 116 123 124 113 77 85 73 31 18 40 44 33 42 47 38 30 27 18 9 5 359 3 1 358 356 352 349 346 342 340 338 333 331 329 325 323 324
142 163 154 146 132 129 115 126 127 127 99 91 104 91 351 345 10 12 30 45 29 17 12 12 10 8 1 353 349 354 352 348 346 342 338 335 332 329 326 324 323 322 320
149 156 173 168 154 152 177 184 173 156 154 143 103 133 154 249 321 332 356 29 19 360 342 353 1 355 354 352 338 343 345 343 340 337 334 330 328 327 325 324 322 319 318
153 187 173 164 161 163 186 194 174 178 155 167 177 136 149 154 176 305 316 341 351 322 315 333 333 332 340 339 334 336 337 336 335 333 330 328 326 324 322 320 319 318 317
233 218 179 167 171 175 187 178 157 160 163 165 169 158 141 104 146 190 269 304 320 291 286 291 299 310 323 328 322 325 331 330 329 327 325 324 322 320 319 317 315 315 316
286 307 212 189 187 189 196 195 176 169 174 165 161 151 153 163 185 192 230 272 288 285 284 270 270 285 299 311 317 325 324 324 322 321 320 318 316 315 315 314 312 312 312
241 260 237 229 212 205 197 182 168 181 183 176 185 188 189 203 181 188 209 259 281 286 283 271 249 269 296 295 304 319 316 318 318 319 317 314 312 311 311 310 310 309 309
222 215 211 214 218 200 189 176 170 181 177 185 194 183 195 217 205 197 197 214 284 288 269 265 264 246 278 286 300 313 306 310 312 314 314 312 310 309 308 309 309 309 308
218 196 204 210 207 195 191 172 178 186 177 188 195 188 198 217 210 218 207 193 208 274 283 256 265 274 287 285 299 299 295 302 308 309 309 309 307 306 306 306 307 308 308
207 178 196 210 207 195 188 176 180 179 176 193 187 184 201 217 213 216 215 228 230 234 267 269 260 282 297 300 303 298 293 303 302 305 305 305 305 304 304 304 306 307 307
207 211 209 204 199 193 188 181 189 184 192 200 196 191 210 203 208 219 219 227 235 233 259 279 271 289 290 298 303 296 290 290 294 300 301 301 302 303 304 303 303 303 304
222 212 201 196 190 191 192 191 200 196 196 199 203 193 215 203 207 220 219 233 239 237 247 276 290 289 283 294 299 297 299 296 290 296 298 298 299 302 303 301 301 302 303
205 201 183 194 203 201 199 201 199 194 197 202 200 198 208 188 220 232 226 241 248 256 249 266 284 289 288 304 309 301 296 290 292 295 296 295 297 300 301 299 300 301 301
190 200 203 213 212 204 198 193 183 187 193 194 202 204 205 203 220 233 238 249 256 261 265 268 279 288 289 300 304 303 306 301 297 298 296 298 299 300 298 297 298 298 298
197 196 183 208 214 208 208 189 187 188 184 184 206 221 224 241 250 247 250 250 250 257 267 272 279 288 291 305 300 301 298 305 295 283 298 296 295 289 290 292 294 294 295
191 176 187 200 214 223 206 199 188 175 180 196 231 246 250 246 262 264 266 266 257 251 258 264 272 279 286 290 294 294 298 308 300 295 301 292 284 283 282 278 289 293 293
185 194 203 203 231 249 226 212 200 176 193 217 232 252 268 276 262 262 269 271 267 264 258 256 264 269 279 284 289 286 286 285 281 293 299 286 279 277 281 284 291 290 292
194 203 207 216 235 263 244 235 214 192 216 237 240 242 257 276 272 272 273 276 272 268 266 258 260 268 273 281 277 279 283 284 280 273 267 277 284 283 289 281 283 286 293
200 201 194 203 226 267 259 254 236 210 231 249 250 249 253 263 281 287 274 275 283 281 279 273 272 276 282 286 289 289 287 292 289 283 254 266 285 298 290 276 278 290 297
201 196 213 215 228 261 271 263 244 224 247 260 262 260 260 269 287 290 267 266 278 284 293 295 283 281 279 279 280 265 266 272 281 282 251 269 283 310 300 282 287 292 292